Total_Precipitation_Accumulation
2.00 2.21 2.40 2.49 2.51 2.35 2.38 2.47 2.36 2.03 1.76 1.55 1.44 1.36 1.34 1.39 1.69 1.59 1.44 1.40 1.30 1.29 1.29 1.26 1.31 1.46 1.83 1.98 2.21 2.40 2.59 2.65 2.74 2.83 2.91 2.90 2.86 2.86
2.02 2.14 2.20 2.24 2.31 2.25 2.25 2.36 2.36 2.18 1.90 1.62 1.44 1.35 1.39 1.32 1.53 1.46 1.55 1.62 1.34 1.22 1.18 1.21 1.21 1.21 1.29 1.39 1.48 1.63 1.75 1.85 2.00 2.16 2.22 2.29 2.34 2.35
1.56 1.69 1.92 2.11 2.19 2.20 2.27 2.34 2.35 2.22 1.94 1.75 1.49 1.43 1.53 1.45 1.46 1.45 1.57 1.61 1.38 1.26 1.12 1.09 1.12 1.09 1.18 1.24 1.19 1.22 1.34 1.44 1.58 1.69 1.79 1.84 1.86 1.90
1.43 1.45 1.55 1.82 1.98 2.10 2.21 2.25 2.29 2.25 2.05 2.00 1.87 1.61 1.52 1.48 1.58 1.68 1.64 1.64 1.57 1.55 1.40 1.19 1.13 1.11 1.13 1.19 1.16 1.10 1.10 1.19 1.28 1.31 1.39 1.54 1.65 1.65
1.31 1.32 1.42 1.54 1.69 1.81 1.95 2.08 2.13 2.23 2.21 2.00 2.03 1.92 1.67 1.61 1.62 1.71 1.78 1.90 1.77 1.72 1.75 1.57 1.37 1.30 1.26 1.20 1.15 1.13 1.13 1.10 1.10 1.15 1.19 1.24 1.31 1.40
1.24 1.30 1.35 1.37 1.56 1.80 1.91 2.02 2.07 2.18 2.31 2.19 2.10 2.02 1.85 1.76 1.74 1.77 1.94 2.04 2.02 1.76 1.65 1.60 1.54 1.45 1.40 1.34 1.22 1.23 1.23 1.12 1.07 1.11 1.12 1.18 1.21 1.23
1.14 1.12 1.20 1.33 1.47 1.68 1.78 2.02 2.06 2.20 2.30 2.31 2.17 1.98 1.83 1.76 1.73 1.74 1.93 2.13 2.15 2.03 1.86 1.64 1.53 1.38 1.31 1.34 1.35 1.35 1.32 1.24 1.18 1.22 1.29 1.29 1.27 1.30
1.19 1.14 1.12 1.20 1.30 1.41 1.46 1.71 1.91 2.04 2.15 2.15 2.13 1.97 1.82 1.74 1.85 1.91 1.94 2.02 2.10 2.02 1.83 1.86 1.77 1.59 1.43 1.32 1.43 1.51 1.52 1.49 1.37 1.30 1.32 1.38 1.38 1.38
1.11 1.16 1.20 1.17 1.26 1.34 1.38 1.50 1.60 1.66 1.79 1.91 1.92 1.82 1.81 1.76 1.86 1.95 1.97 1.91 1.80 1.84 1.78 1.86 1.86 1.67 1.48 1.40 1.49 1.45 1.45 1.48 1.45 1.38 1.33 1.31 1.35 1.40
1.09 1.08 1.21 1.26 1.31 1.48 1.47 1.55 1.48 1.41 1.46 1.53 1.67 1.73 1.70 1.80 1.90 2.09 2.21 2.09 1.93 1.92 1.85 1.78 1.69 1.59 1.41 1.40 1.48 1.35 1.32 1.36 1.39 1.37 1.32 1.28 1.25 1.29
1.05 1.08 1.20 1.28 1.50 1.63 1.62 1.60 1.48 1.40 1.49 1.60 1.72 1.82 1.85 1.92 2.01 2.09 2.14 2.16 2.08 2.01 1.85 1.70 1.57 1.56 1.49 1.39 1.37 1.43 1.37 1.34 1.33 1.35 1.35 1.35 1.39 1.45
1.14 1.12 1.34 1.32 1.48 1.55 1.56 1.66 1.63 1.49 1.47 1.48 1.53 1.60 1.60 1.70 1.97 1.99 2.13 2.23 2.07 2.01 1.87 1.76 1.69 1.80 1.86 1.58 1.36 1.33 1.33 1.43 1.46 1.43 1.45 1.46 1.54 1.51
1.10 1.07 1.04 1.22 1.28 1.41 1.52 1.55 1.80 1.72 1.62 1.61 1.55 1.46 1.47 1.51 1.63 1.84 2.01 2.09 2.07 1.85 1.70 1.74 1.77 1.80 1.77 1.60 1.46 1.38 1.36 1.34 1.41 1.43 1.46 1.56 1.64 1.55
0.95 0.98 0.98 1.16 1.19 1.26 1.29 1.49 1.73 1.74 1.61 1.68 1.64 1.53 1.46 1.49 1.50 1.58 1.77 1.81 1.79 1.80 1.74 1.73 1.77 1.77 1.72 1.54 1.45 1.45 1.46 1.42 1.42 1.43 1.43 1.66 1.73 1.80
0.83 1.01 1.10 1.18 1.15 1.09 1.26 1.51 1.56 1.56 1.68 1.64 1.62 1.53 1.44 1.50 1.51 1.58 1.66 1.67 1.62 1.60 1.63 1.66 1.77 1.84 1.82 1.69 1.48 1.37 1.47 1.55 1.50 1.51 1.55 1.58 1.55 1.61
0.89 1.09 1.26 1.32 1.27 1.19 1.28 1.40 1.39 1.50 1.67 1.55 1.49 1.45 1.44 1.53 1.59 1.64 1.61 1.63 1.66 1.58 1.56 1.57 1.73 1.99 2.06 1.89 1.83 1.71 1.62 1.65 1.59 1.64 1.71 1.74 1.74 1.70
1.03 1.20 1.37 1.42 1.48 1.43 1.40 1.46 1.41 1.37 1.44 1.36 1.38 1.44 1.49 1.53 1.53 1.55 1.56 1.52 1.58 1.51 1.51 1.52 1.54 1.67 1.84 1.92 1.96 1.90 1.91 1.91 1.88 1.91 1.91 1.81 1.68 1.66
1.25 1.36 1.50 1.60 1.62 1.61 1.61 1.58 1.46 1.38 1.33 1.34 1.43 1.47 1.45 1.50 1.55 1.53 1.60 1.59 1.57 1.48 1.46 1.46 1.51 1.67 1.79 1.80 1.73 1.65 1.67 1.73 1.75 1.86 1.95 1.86 1.66 1.51
1.47 1.48 1.51 1.58 1.60 1.54 1.49 1.45 1.35 1.26 1.26 1.33 1.35 1.37 1.39 1.44 1.52 1.50 1.50 1.53 1.46 1.37 1.34 1.35 1.46 1.65 1.79 1.71 1.50 1.42 1.49 1.59 1.69 1.78 1.82 1.71 1.53 1.42
1.57 1.57 1.63 1.62 1.60 1.47 1.35 1.28 1.20 1.21 1.24 1.25 1.23 1.20 1.28 1.38 1.44 1.45 1.46 1.50 1.48 1.42 1.39 1.37 1.45 1.58 1.68 1.67 1.54 1.41 1.45 1.52 1.58 1.67 1.66 1.64 1.60 1.62
1.32 1.32 1.35 1.37 1.33 1.26 1.21 1.19 1.16 1.17 1.19 1.20 1.20 1.20 1.26 1.31 1.31 1.32 1.39 1.53 1.58 1.52 1.48 1.39 1.42 1.58 1.57 1.61 1.57 1.36 1.30 1.47 1.57 1.57 1.59 1.69 1.70 1.64
1.11 1.12 1.10 1.07 1.07 1.07 1.10 1.14 1.17 1.18 1.21 1.23 1.26 1.27 1.31 1.37 1.33 1.32 1.36 1.43 1.48 1.47 1.43 1.39 1.42 1.57 1.64 1.68 1.55 1.37 1.29 1.32 1.52 1.73 1.75 1.72 1.64 1.55
1.16 1.17 1.13 1.10 1.07 1.07 1.12 1.16 1.19 1.19 1.21 1.23 1.26 1.28 1.31 1.34 1.34 1.36 1.38 1.43 1.47 1.50 1.52 1.52 1.55 1.62 1.66 1.63 1.55 1.43 1.35 1.32 1.37 1.50 1.62 1.78 1.66 1.44